Vancouver Int'l Airport, British Columbia

Past 24 Hour Conditions

Date / Time
(PST)
Conditions Temp
(°C)
Humidity
(%)
Dew Point
(°C)
Wind
(km/h)
Pressure
(kPa)
Visibility
(km)
23 November 2014
15:00 Partly Cloudy 9 82 6 WSW 16 gust 33 102.0 48
14:00 Partly Cloudy 9 83 7 SW 13 101.9 48
13:00 Partly Cloudy 10   82 7 WSW 13 101.9 48
12:00 Partly Cloudy 10   85 7 WSW 10 101.8 48
11:00 Partly Cloudy 9 84 7 WSW 14 101.7 40
10:00 Light Rainshower 8 94 7 NW 16 101.6 24
9:00 Mostly Cloudy 8 92 7 SSW 18 101.5 19
8:00 Light Rain 8 91 7 SSW 22 gust 37 101.4 16
7:00 Mostly Cloudy 8 89 7 S 19 gust 39 101.4 24
6:00 Light Rain 8 94 7 S 5 101.5 19
5:00 Light Rain 7 92 6 SE 21 gust 32 101.5 13
4:00 Light Rain 8 91 6 SE 23 gust 40 101.5 16
3:00 Light Rain 8 95 7 SE 27 gust 40 101.7 19
2:00 Light Rain 7 93 6 E 19 101.8 16
1:00 Cloudy 7 89 5 ENE 15 101.8 24
00:00 Mostly Cloudy 6 90 5 E 15 101.8 24
22 November 2014
23:00 Mostly Cloudy 6 90 4 E 12 101.8 24
22:00 Cloudy 5 93 4 E 14 101.8 24
21:00 Mainly Clear 4   94 3 E 14 101.7 32
20:00 Mainly Clear 6 88 4 ENE 10 101.6 32
19:00 Partly Cloudy 7 89 5 S 7 101.6 32
18:00 Partly Cloudy 6 92 4 SE 8 101.5 24
17:00 Partly Cloudy 7 92 5 NW 3 101.4 48
16:00 Partly Cloudy 8 88 6 WSW 16 gust 33 101.3 48
15:00 Partly Cloudy 9 86 6 WSW 12 101.2 48
N/A Not available
↑ Highest temperature
↓ Lowest temperature

If you require additional historical weather information, please visit Climate Data Online.

Date modified: